DateTimeUTC,F1_A11,F1_S11,BsB_S11,BsG_S11,BsR_S11,BbsB_S11,BbsG_S11,BbsR_S11,BaB_A11,BaG_A11,BaR_A11,Tu_S11,T_S11,Uu_S11,U_S11,P_S11,T1_A11
2021-03-26T14:00:00Z,00000200,21000000,,,,,,,-000.07,0000.18,0000.07,16.5,23.8,,00.0,0630.2,30.8
2021-03-26T14:01:00Z,00000200,21000000,,,,,,,0000.43,0000.41,0000.14,16.5,23.8,,00.0,0630.2,30.8
2021-03-26T14:02:00Z,00000200,21000000,,,,,,,0000.16,0000.31,0000.41,16.5,23.8,,00.0,0630.2,30.9
2021-03-26T14:03:00Z,00000200,61000000,,,,,,,0003.52,0002.86,0002.30,16.5,23.8,,00.0,0630.2,30.9
2021-03-26T14:04:00Z,00000200,41000000,0005.96,0003.79,0002.05,0000.79,0000.69,0000.38,0003.78,0004.09,0002.95,16.7,23.6,,00.0,0631.1,30.9
2021-03-26T14:05:00Z,00000200,01000000,0006.34,0003.80,0002.05,0001.54,0000.57,0000.58,0004.07,0003.51,0002.97,16.8,23.6,,00.0,0631.1,30.9
2021-03-26T14:06:00Z,00000200,01000000,0006.07,0003.86,0002.32,0000.95,0000.47,0000.59,0004.44,0004.22,0002.96,16.8,23.6,,00.0,0631.1,30.9
2021-03-26T14:07:00Z,00000200,01000000,0006.41,0004.02,0002.27,0001.16,0000.76,0000.65,0004.59,0004.21,0003.25,16.9,23.6,,00.0,0631.1,30.9
2021-03-26T14:08:00Z,00000200,01000000,0006.12,0004.28,0002.45,0000.77,0000.68,0000.56,0003.84,0003.28,0003.06,16.9,23.7,,00.0,0631.1,30.9
2021-03-26T14:09:00Z,00000200,01000000,0006.46,0003.98,0002.26,0001.07,0000.70,0000.49,0004.28,0004.30,0003.18,17.0,23.7,,00.0,0631.2,30.9
2021-03-26T14:10:00Z,00000200,01000000,0006.10,0004.15,0002.22,0000.96,0000.76,0000.56,0003.91,0003.35,0002.69,17.0,23.7,,00.0,0631.2,30.9
2021-03-26T14:11:00Z,00000200,01000000,0006.17,0004.43,0002.15,0001.09,0000.74,0000.83,0003.40,0003.43,0002.40,17.0,23.7,,00.0,0631.2,30.9
2021-03-26T14:12:00Z,00000200,01000000,0006.31,0004.30,0002.21,0000.88,0000.57,0000.49,0003.91,0003.40,0002.84,17.0,23.7,,00.0,0631.2,30.9
2021-03-26T14:13:00Z,00000200,01000000,0006.42,0003.96,0002.32,0001.30,0000.67,0000.70,0004.08,0003.80,0003.12,16.9,23.7,,00.0,0631.2,30.9
2021-03-26T14:14:00Z,00000200,01000000,0006.15,0004.23,0002.41,0001.12,0000.21,0000.36,0003.90,0003.21,0002.59,16.8,23.6,,00.0,0631.2,30.8
2021-03-26T14:15:00Z,00000200,01000000,0006.43,0004.12,0002.14,0000.76,0000.45,0000.54,0004.41,0004.19,0003.26,16.7,23.5,,00.0,0631.2,30.8
2021-03-26T14:16:00Z,00000200,01000000,0005.90,0004.10,0002.36,0001.04,0000.65,0000.58,0003.72,0003.57,0002.37,16.6,23.5,,00.0,0631.2,30.8
2021-03-26T14:17:00Z,00000200,01000000,0006.57,0004.37,0002.22,0001.25,0000.50,0000.59,0003.63,0003.46,0003.16,16.6,23.4,,00.0,0631.2,30.8
2021-03-26T14:18:00Z,00000200,01000000,0006.30,0004.11,0002.81,0001.06,0000.78,0000.93,0004.91,0004.07,0002.85,16.7,23.4,,00.0,0631.2,30.8
2021-03-26T14:19:00Z,00000200,01000000,0009.03,0006.46,0004.90,0001.74,0001.08,0001.34,0032.85,0029.82,0023.18,16.7,23.5,01.1,00.7,0631.3,30.9
2021-03-26T14:20:00Z,00000200,01000000,0006.26,0004.46,0002.20,0000.98,0000.42,0000.39,-007.36,-006.15,-004.50,16.8,23.5,00.4,00.2,0631.2,30.8
2021-03-26T14:21:00Z,00000200,01000000,0007.01,0004.39,0002.44,0001.16,0000.67,0000.33,-001.41,-000.97,-000.04,16.8,23.5,,00.0,0631.2,30.9
2021-03-26T14:22:00Z,00000200,01000000,0006.26,0004.40,0002.35,0000.37,0000.50,0000.69,0002.33,0002.27,0001.55,16.8,23.5,,00.0,0631.2,30.9
2021-03-26T14:23:00Z,00000200,01000000,0006.75,0004.27,0002.56,0000.92,0000.38,0000.58,0003.05,0003.01,0002.60,16.8,23.5,,00.0,0631.2,30.9
2021-03-26T14:24:00Z,00000200,01000000,0006.54,0004.26,0002.13,0000.90,0000.43,0000.35,0003.47,0003.04,0002.26,16.8,23.6,,00.0,0631.2,30.9
2021-03-26T14:25:00Z,00000200,01000000,0006.94,0004.00,0002.16,0001.04,0000.82,0000.45,0003.15,0002.83,0001.97,16.9,23.6,,00.0,0631.2,30.9
2021-03-26T14:26:00Z,00000200,01000000,0006.69,0004.21,0002.51,0001.05,0000.42,0000.73,0003.36,0002.93,0002.90,16.9,23.6,,00.0,0631.2,30.9
2021-03-26T14:27:00Z,00000200,01000000,0006.77,0004.20,0002.47,0001.23,0000.61,0000.60,0003.85,0003.81,0002.57,16.8,23.6,,00.0,0631.1,30.9
2021-03-26T14:28:00Z,00000200,01000000,0006.43,0004.20,0002.34,0000.92,0000.62,0000.62,0003.85,0003.72,0003.06,16.7,23.5,,00.0,0631.1,30.9
2021-03-26T14:29:00Z,00000200,01000000,0006.87,0004.40,0002.06,0000.77,0000.42,0000.48,0003.75,0003.37,0002.30,16.7,23.5,,00.0,0631.1,30.9
2021-03-26T14:30:00Z,00000200,01000000,0006.12,0004.19,0002.27,0000.74,0000.60,0000.56,0004.39,0003.85,0003.39,16.6,23.5,,00.0,0631.1,30.8
2021-03-26T14:31:00Z,00000200,01000000,0006.62,0003.97,0002.24,0000.98,0000.47,0000.68,0003.88,0003.76,0002.97,16.5,23.4,,00.0,0631.1,30.8
2021-03-26T14:32:00Z,00000200,01000000,0005.67,0004.15,0002.48,0001.13,0000.49,0000.53,0004.17,0003.85,0003.03,16.6,23.4,,00.0,0631.1,30.9
2021-03-26T14:33:00Z,00000200,01000000,0006.71,0004.33,0002.41,0000.57,0000.60,0000.57,0004.04,0004.15,0003.00,16.6,23.4,,00.0,0631.1,30.9
2021-03-26T14:34:00Z,00000200,01000000,0005.43,0004.13,0002.27,0000.82,0000.74,0000.63,0003.99,0003.42,0002.85,16.6,23.5,,00.0,0631.1,30.9
2021-03-26T14:35:00Z,00000200,01000000,0005.77,0004.23,0002.13,0000.83,0000.70,0000.54,0004.09,0004.05,0003.01,16.7,23.5,,00.0,0631.1,30.9
2021-03-26T14:36:00Z,00000200,01000000,0006.40,0004.11,0002.49,0000.77,0000.90,0000.41,0004.14,0003.88,0003.07,16.7,23.6,,00.0,0631.2,30.9
2021-03-26T14:37:00Z,00000200,01000000,0005.55,0004.22,0002.52,0001.01,0000.73,0000.49,0004.06,0003.67,0002.68,16.8,23.6,,00.0,0631.1,30.9
2021-03-26T14:38:00Z,00000200,01000000,0006.51,0004.03,0002.30,0000.87,0000.89,0000.62,0003.93,0003.61,0003.22,16.8,23.6,,00.0,0631.1,30.9
2021-03-26T14:39:00Z,00000200,01000000,0006.29,0004.05,0002.21,0000.89,0000.64,0000.61,0004.32,0003.85,0002.79,16.9,23.6,,00.0,0631.2,31.0
2021-03-26T14:40:00Z,00000200,01000000,0007.09,0004.22,0002.25,0000.89,0000.75,0000.59,0003.95,0003.63,0002.99,16.9,23.7,,00.0,0631.2,31.0
2021-03-26T14:41:00Z,00000200,01000000,0005.93,0004.13,0001.99,0000.39,0000.41,0000.63,0004.42,0004.10,0002.91,16.9,23.7,,00.0,0631.2,31.0
2021-03-26T14:42:00Z,00000200,01000000,0006.58,0004.41,0002.12,0001.27,0000.48,0000.58,0003.77,0003.75,0002.99,17.0,23.7,,00.0,0631.2,31.0
2021-03-26T14:43:00Z,00000200,01000000,0006.51,0004.31,0002.10,0001.59,0000.66,0000.56,0004.01,0003.28,0002.75,17.0,23.7,,00.0,0631.2,31.0
2021-03-26T14:44:00Z,00000200,01000000,0005.57,0004.19,0002.12,0001.30,0000.61,0000.81,0004.22,0003.49,0002.88,17.0,23.7,,00.0,0631.2,30.9
2021-03-26T14:45:00Z,00000200,01000000,0006.30,0003.99,0002.54,0001.05,0000.40,0000.80,0003.82,0004.04,0003.07,16.9,23.7,,00.0,0631.2,30.9
2021-03-26T14:46:00Z,00000200,01000000,0006.23,0004.32,0002.18,0001.28,0000.57,0000.72,0004.24,0004.00,0002.91,16.9,23.7,,00.0,0631.2,30.9
2021-03-26T14:47:00Z,00000200,01000000,0006.41,0004.06,0002.44,0000.97,0000.60,0000.73,0004.33,0003.56,0003.43,16.9,23.7,,00.0,0631.2,30.9
2021-03-26T14:48:00Z,00000200,01000000,0006.18,0004.01,0002.31,0001.08,0000.82,0000.63,0003.60,0003.97,0002.82,16.9,23.7,,00.0,0631.2,30.9
2021-03-26T14:49:00Z,00000200,01000000,0006.25,0004.00,0001.97,0000.74,0000.55,0000.55,0004.65,0003.95,0003.02,17.0,23.7,,00.0,0631.2,30.9
2021-03-26T14:50:00Z,00000200,01000000,0006.07,0004.47,0001.98,0000.67,0000.44,0000.40,0003.82,0003.85,0002.91,17.1,23.8,,00.0,0631.3,31.0
2021-03-26T14:51:00Z,00000200,01000000,0006.75,0003.92,0002.14,0001.17,0000.40,0000.49,0004.03,0003.73,0002.93,17.1,23.8,,00.0,0631.3,31.0
2021-03-26T14:52:00Z,00000200,01000000,0005.79,0004.00,0002.30,0000.96,0000.72,0000.57,0004.01,0003.40,0002.81,17.2,23.8,,00.0,0631.3,31.0
2021-03-26T14:53:00Z,00000200,01000000,0006.37,0004.13,0002.26,0000.89,0000.64,0000.55,0004.03,0003.34,0002.89,17.3,23.9,,00.0,0631.3,31.0
2021-03-26T14:54:00Z,00000200,01000000,0006.44,0004.09,0002.35,0001.06,0000.34,0000.46,0003.79,0003.70,0002.59,17.3,23.9,,00.0,0631.3,30.9
2021-03-26T14:55:00Z,00000200,01000000,0006.41,0004.05,0002.28,0001.14,0000.52,0000.50,0003.88,0003.69,0002.87,17.2,23.9,,00.0,0631.3,30.9
2021-03-26T14:56:00Z,00000200,01000000,0006.40,0004.24,0002.39,0000.77,0000.57,0000.63,0004.10,0003.76,0002.91,17.2,23.8,,00.0,0631.3,30.9
2021-03-26T14:57:00Z,00000200,41000000,,,,,,,0001.69,0001.79,0001.25,17.2,23.9,,00.0,0631.4,30.9
2021-03-26T14:58:00Z,00000200,61000000,,,,,,,-000.16,-000.29,-000.08,16.7,23.9,,00.0,0630.4,30.9
2021-03-26T14:59:00Z,00000200,21000000,,,,,,,-000.32,-000.38,-000.30,16.7,24.0,,00.0,0630.3,30.9
